| time (UTC) | temp F | wind direction | speed MPH | gust MPH | rain 1hr in | rain 24hr in | rain mn in | humidity % | barometer mb |
| 20260831194832 | 85 | 266 | 1.0 | 4.0 | 0.00 | 0.00 | 0.00 | 58 | 1012.1 |
| 20260831194334 | 85 | 267 | 1.0 | 4.0 | 0.00 | 0.00 | 0.00 | 57 | 1012.3 |
| 20260831193831 | 85 | 244 | 2.0 | 6.0 | 0.00 | 0.00 | 0.00 | 58 | 1012.3 |
| 20260831193330 | 85 | 151 | 3.0 | 6.0 | 0.00 | 0.00 | 0.00 | 59 | 1012.3 |
| 20260831192851 | 84 | 163 | 2.0 | 6.0 | 0.00 | 0.00 | 0.00 | 60 | 1012.3 |
| 20260831192332 | 84 | 269 | 2.0 | 4.0 | 0.00 | 0.00 | 0.00 | 60 | 1012.3 |
| 20260831191831 | 84 | 243 | 2.0 | 6.0 | 0.00 | 0.00 | 0.00 | 60 | 1012.4 |
| 20260831191332 | 84 | 219 | 2.0 | 6.0 | 0.00 | 0.00 | 0.00 | 61 | 1012.5 |
| 20260831190832 | 83 | 244 | 3.0 | 6.0 | 0.00 | 0.00 | 0.00 | 61 | 1012.4 |
| 20260831190351 | 84 | 52 | 2.0 | 6.0 | 0.00 | 0.00 | 0.00 | 60 | 1012.5 |
| 20260831185332 | 83 | 205 | 2.0 | 5.0 | 0.00 | 0.00 | 0.00 | 62 | 1012.5 |
| 20260831184829 | 83 | 157 | 1.0 | 5.0 | 0.00 | 0.00 | 0.00 | 62 | 1012.5 |
| 20260831184327 | 84 | 144 | 2.0 | 5.0 | 0.00 | 0.00 | 0.00 | 62 | 1012.6 |
| 20260831183827 | 83 | 127 | 0.0 | 5.0 | 0.00 | 0.00 | 0.00 | 64 | 1012.5 |
| 20260831182832 | 83 | 134 | 1.0 | 4.0 | 0.00 | 0.00 | 0.00 | 63 | 1012.6 |
| 20260831182333 | 82 | 239 | 2.0 | 5.0 | 0.00 | 0.00 | 0.00 | 63 | 1012.6 |
| 20260831181833 | 82 | 158 | 2.0 | 5.0 | 0.00 | 0.00 | 0.00 | 63 | 1012.7 |
| 20260831180833 | 82 | 216 | 1.0 | 5.0 | 0.00 | 0.00 | 0.00 | 64 | 1012.7 |
| 20260831175824 | 82 | 203 | 2.0 | 4.0 | 0.00 | 0.00 | 0.00 | 64 | 1012.7 |
| 20260831175326 | 81 | 270 | 0.0 | 3.0 | 0.00 | 0.00 | 0.00 | 65 | 1012.7 |
| 20260831174825 | 81 | 162 | 1.0 | 4.0 | 0.00 | 0.00 | 0.00 | 64 | 1012.7 |
| 20260831174324 | 81 | 153 | 2.0 | 4.0 | 0.00 | 0.00 | 0.00 | 64 | 1012.7 |
| 20260831164331 | 78 | 198 | 0.0 | 3.0 | 0.00 | 0.00 | 0.00 | 67 | 1012.4 |
| 20260831163828 | 78 | 132 | 1.0 | 3.0 | 0.00 | 0.00 | 0.00 | 67 | 1012.4 |
| 20260831163327 | 78 | 188 | 1.0 | 3.0 | 0.00 | 0.00 | 0.00 | 68 | 1012.4 |
| 20260831162824 | 77 | 237 | 1.0 | 3.0 | 0.00 | 0.00 | 0.00 | 69 | 1012.4 |
| 20260831162325 | 77 | 248 | 0.0 | 3.0 | 0.00 | 0.00 | 0.00 | 69 | 1012.4 |
| 20260831161826 | 77 | 167 | 0.0 | 3.0 | 0.00 | 0.00 | 0.00 | 69 | 1012.4 |
| 20260831161325 | 76 | 162 | 1.0 | 3.0 | 0.00 | 0.00 | 0.00 | 70 | 1012.4 |
| 20260831160824 | 76 | 153 | 2.0 | 3.0 | 0.00 | 0.00 | 0.00 | 69 | 1012.4 |
| 20260831160328 | 76 | 253 | 0.0 | 3.0 | 0.00 | 0.00 | 0.00 | 71 | 1012.3 |
| 20260831155823 | 76 | 188 | 2.0 | 3.0 | 0.00 | 0.00 | 0.00 | 71 | 1012.4 |
| 20260831155324 | 75 | 214 | 0.0 | 2.0 | 0.00 | 0.00 | 0.00 | 71 | 1012.3 |
| 20260831154822 | 75 | 224 | 0.0 | 3.0 | 0.00 | 0.00 | 0.00 | 71 | 1012.2 |
| 20260831154322 | 75 | 212 | 1.0 | 3.0 | 0.00 | 0.00 | 0.00 | 72 | 1012.2 |
| 20260831153819 | 75 | 171 | 1.0 | 2.0 | 0.00 | 0.00 | 0.00 | 72 | 1012.2 |
| 20260831153358 | 75 | 228 | 0.0 | 1.0 | 0.00 | 0.00 | 0.00 | 73 | 1012.3 |
| 20260831152857 | 75 | 228 | 0.0 | 1.0 | 0.00 | 0.00 | 0.00 | 72 | 1012.2 |
| 20260831152354 | 75 | 134 | 0.0 | 2.0 | 0.00 | 0.00 | 0.00 | 71 | 1012.3 |
| 20260831151853 | 75 | 134 | 0.0 | 2.0 | 0.00 | 0.00 | 0.00 | 72 | 1012.2 |
| 20260831151332 | 75 | 170 | 1.0 | 2.0 | 0.00 | 0.00 | 0.00 | 71 | 1012.2 |
| 20260831150832 | 75 | 160 | 0.0 | 2.0 | 0.00 | 0.00 | 0.00 | 72 | 1012.3 |
| 20260831150331 | 74 | 160 | 0.0 | 2.0 | 0.00 | 0.00 | 0.00 | 73 | 1012.2 |
| 20260831145831 | 74 | 150 | 0.0 | 0.0 | 0.00 | 0.00 | 0.00 | 75 | 1012.1 |
| 20260831145331 | 73 | 149 | 0.0 | 0.0 | 0.00 | 0.00 | 0.00 | 76 | 1012.1 |
| 20260831144831 | 72 | 149 | 0.0 | 0.0 | 0.00 | 0.00 | 0.00 | 77 | 1012.1 |
| 20260831144332 | 71 | 149 | 0.0 | 0.0 | 0.00 | 0.00 | 0.00 | 79 | 1012.1 |
| 20260831143831 | 71 | 149 | 0.0 | 0.0 | 0.00 | 0.00 | 0.00 | 80 | 1012.0 |
| 20260831143330 | 70 | 150 | 0.0 | 0.0 | 0.00 | 0.00 | 0.00 | 83 | 1012.0 |
| 20260831142332 | 69 | 148 | 0.0 | 0.0 | 0.00 | 0.00 | 0.00 | 85 | 1011.8 |
| 20260831141831 | 67 | 148 | 0.0 | 0.0 | 0.00 | 0.00 | 0.00 | 87 | 1011.7 |
| 20260831141345 | 66 | 148 | 0.0 | 0.0 | 0.00 | 0.00 | 0.00 | 87 | 1011.7 |
| 20260831140825 | 66 | 148 | 0.0 | 0.0 | 0.00 | 0.00 | 0.00 | 87 | 1011.7 |
| 20260831140323 | 65 | 148 | 0.0 | 0.0 | 0.00 | 0.00 | 0.00 | 86 | 1011.6 |
| 20260831135819 | 65 | 148 | 0.0 | 0.0 | 0.00 | 0.00 | 0.00 | 86 | 1011.5 |
| 20260831135338 | 65 | 148 | 0.0 | 0.0 | 0.00 | 0.00 | 0.00 | 86 | 1011.5 |
| 20260831134840 | 65 | 148 | 0.0 | 0.0 | 0.00 | 0.00 | 0.00 | 86 | 1011.4 |
| 20260831134337 | 65 | 148 | 0.0 | 0.0 | 0.00 | 0.00 | 0.00 | 86 | 1011.3 |
| 20260831133836 | 65 | 148 | 0.0 | 0.0 | 0.00 | 0.00 | 0.00 | 86 | 1011.2 |
| 20260831133334 | 65 | 148 | 0.0 | 0.0 | 0.00 | 0.00 | 0.00 | 86 | 1011.2 |
| 20260831132834 | 65 | 148 | 0.0 | 0.0 | 0.00 | 0.00 | 0.00 | 86 | 1011.1 |
| 20260831132333 | 65 | 148 | 0.0 | 0.0 | 0.00 | 0.00 | 0.00 | 86 | 1011.1 |
| 20260831131830 | 65 | 148 | 0.0 | 0.0 | 0.00 | 0.00 | 0.00 | 86 | 1011.1 |
| 20260831131327 | 65 | 148 | 0.0 | 0.0 | 0.00 | 0.00 | 0.00 | 86 | 1011.1 |
| 20260831130828 | 65 | 148 | 0.0 | 0.0 | 0.00 | 0.00 | 0.00 | 86 | 1011.1 |
| 20260831130327 | 65 | 148 | 0.0 | 0.0 | 0.00 | 0.00 | 0.00 | 85 | 1011.0 |
| 20260831125849 | 65 | 148 | 0.0 | 0.0 | 0.00 | 0.00 | 0.00 | 85 | 1011.0 |
| 20260831125329 | 65 | 148 | 0.0 | 0.0 | 0.00 | 0.00 | 0.00 | 85 | 1011.0 |
| 20260831124828 | 65 | 148 | 0.0 | 0.0 | 0.00 | 0.00 | 0.00 | 85 | 1011.1 |
| 20260831124344 | 66 | 148 | 0.0 | 0.0 | 0.00 | 0.00 | 0.00 | 84 | 1011.0 |
| 20260831123824 | 66 | 148 | 0.0 | 0.0 | 0.00 | 0.00 | 0.00 | 84 | 1011.0 |
| 20260831123321 | 66 | 148 | 0.0 | 0.0 | 0.00 | 0.00 | 0.00 | 84 | 1011.0 |
| 20260831122821 | 66 | 148 | 0.0 | 0.0 | 0.00 | 0.00 | 0.00 | 85 | 1011.0 |
| 20260831122337 | 66 | 148 | 0.0 | 0.0 | 0.00 | 0.00 | 0.00 | 84 | 1010.9 |
| 20260831121819 | 66 | 148 | 0.0 | 0.0 | 0.00 | 0.00 | 0.00 | 84 | 1011.0 |
| 20260831121338 | 66 | 148 | 0.0 | 0.0 | 0.00 | 0.00 | 0.00 | 84 | 1011.0 |
| 20260831120818 | 66 | 148 | 0.0 | 0.0 | 0.00 | 0.00 | 0.00 | 83 | 1011.0 |
| 20260831120359 | 66 | 148 | 0.0 | 0.0 | 0.00 | 0.00 | 0.00 | 83 | 1011.0 |
| 20260831115837 | 66 | 148 | 0.0 | 0.0 | 0.00 | 0.00 | 0.00 | 83 | 1011.0 |
| 20260831115336 | 66 | 148 | 0.0 | 0.0 | 0.00 | 0.00 | 0.00 | 83 | 1011.0 |
| 20260831114837 | 66 | 148 | 0.0 | 0.0 | 0.00 | 0.00 | 0.00 | 82 | 1011.0 |
| 20260831114335 | 67 | 148 | 0.0 | 0.0 | 0.00 | 0.00 | 0.00 | 82 | 1011.0 |
| 20260831113837 | 67 | 148 | 0.0 | 0.0 | 0.00 | 0.00 | 0.00 | 82 | 1011.0 |
| 20260831113337 | 67 | 148 | 0.0 | 0.0 | 0.00 | 0.00 | 0.00 | 82 | 1011.0 |
| 20260831112822 | 67 | 148 | 0.0 | 0.0 | 0.00 | 0.00 | 0.00 | 82 | 1011.0 |
| 20260831112323 | 67 | 148 | 0.0 | 0.0 | 0.00 | 0.00 | 0.00 | 82 | 1011.0 |
| 20260831111844 | 67 | 148 | 0.0 | 0.0 | 0.00 | 0.00 | 0.00 | 82 | 1011.1 |
| 20260831111321 | 67 | 148 | 0.0 | 0.0 | 0.00 | 0.00 | 0.00 | 82 | 1011.1 |
| 20260831110821 | 67 | 148 | 0.0 | 0.0 | 0.00 | 0.00 | 0.00 | 81 | 1011.0 |
| 20260831110322 | 67 | 148 | 0.0 | 0.0 | 0.00 | 0.00 | 0.00 | 81 | 1011.0 |
| 20260831105820 | 67 | 148 | 0.0 | 0.0 | 0.00 | 0.00 | 0.00 | 81 | 1011.0 |
| 20260831105319 | 67 | 148 | 0.0 | 0.0 | 0.00 | 0.00 | 0.00 | 81 | 1011.0 |
| 20260831104842 | 68 | 148 | 0.0 | 0.0 | 0.00 | 0.00 | 0.00 | 80 | 1011.0 |
| 20260831104321 | 68 | 148 | 0.0 | 0.0 | 0.00 | 0.00 | 0.00 | 80 | 1011.1 |
| 20260831103823 | 68 | 148 | 0.0 | 0.0 | 0.00 | 0.00 | 0.00 | 80 | 1011.0 |
| 20260831103322 | 68 | 148 | 0.0 | 0.0 | 0.00 | 0.00 | 0.00 | 80 | 1011.1 |
| 20260831102821 | 68 | 148 | 0.0 | 0.0 | 0.00 | 0.00 | 0.00 | 80 | 1011.1 |
| 20260831102320 | 68 | 148 | 0.0 | 0.0 | 0.00 | 0.00 | 0.00 | 80 | 1011.1 |
| 20260831101820 | 68 | 148 | 0.0 | 0.0 | 0.00 | 0.00 | 0.00 | 80 | 1011.2 |
| 20260831101337 | 68 | 148 | 0.0 | 0.0 | 0.00 | 0.00 | 0.00 | 80 | 1011.1 |
| 20260831100820 | 68 | 148 | 0.0 | 0.0 | 0.00 | 0.00 | 0.00 | 79 | 1011.2 |
| 20260831100319 | 68 | 148 | 0.0 | 0.0 | 0.00 | 0.00 | 0.00 | 79 | 1011.1 |
| 20260831095819 | 68 | 148 | 0.0 | 0.0 | 0.00 | 0.00 | 0.00 | 80 | 1011.1 |
| 20260831095333 | 68 | 148 | 0.0 | 0.0 | 0.00 | 0.00 | 0.00 | 79 | 1011.1 |
| 20260831094834 | 68 | 148 | 0.0 | 0.0 | 0.00 | 0.00 | 0.00 | 79 | 1011.1 |
| 20260831094353 | 68 | 148 | 0.0 | 0.0 | 0.00 | 0.00 | 0.00 | 79 | 1011.1 |
| 20260831093832 | 68 | 148 | 0.0 | 0.0 | 0.00 | 0.00 | 0.00 | 79 | 1011.1 |
| 20260831093329 | 68 | 148 | 0.0 | 0.0 | 0.00 | 0.00 | 0.00 | 79 | 1011.1 |
| 20260831092827 | 69 | 148 | 0.0 | 0.0 | 0.00 | 0.00 | 0.00 | 78 | 1011.1 |
| 20260831092347 | 69 | 148 | 0.0 | 0.0 | 0.00 | 0.00 | 0.00 | 79 | 1011.0 |
| 20260831091823 | 69 | 148 | 0.0 | 0.0 | 0.00 | 0.00 | 0.00 | 78 | 1011.0 |
| 20260831091320 | 69 | 148 | 0.0 | 0.0 | 0.00 | 0.00 | 0.00 | 79 | 1011.0 |
| 20260831090820 | 69 | 148 | 0.0 | 0.0 | 0.00 | 0.00 | 0.00 | 79 | 1011.0 |
| 20260831090338 | 69 | 148 | 0.0 | 0.0 | 0.00 | 0.00 | 0.00 | 79 | 1011.0 |
| 20260831085858 | 69 | 148 | 0.0 | 0.0 | 0.00 | 0.00 | 0.00 | 79 | 1011.0 |
| 20260831085333 | 69 | 148 | 0.0 | 0.0 | 0.00 | 0.00 | 0.00 | 78 | 1011.1 |
| 20260831084830 | 69 | 148 | 0.0 | 0.0 | 0.00 | 0.00 | 0.00 | 78 | 1011.1 |
| 20260831084322 | 69 | 148 | 0.0 | 0.0 | 0.00 | 0.00 | 0.00 | 79 | 1011.1 |
| 20260831083820 | 69 | 148 | 0.0 | 0.0 | 0.00 | 0.00 | 0.00 | 78 | 1011.1 |
| 20260831083341 | 69 | 148 | 0.0 | 0.0 | 0.00 | 0.00 | 0.00 | 79 | 1011.1 |
| 20260831082823 | 69 | 148 | 0.0 | 0.0 | 0.00 | 0.00 | 0.00 | 78 | 1011.1 |
| 20260831082338 | 69 | 148 | 0.0 | 0.0 | 0.00 | 0.00 | 0.00 | 78 | 1011.1 |
| 20260831081834 | 69 | 148 | 0.0 | 0.0 | 0.00 | 0.00 | 0.00 | 78 | 1011.1 |
| 20260831081355 | 69 | 148 | 0.0 | 0.0 | 0.00 | 0.00 | 0.00 | 77 | 1011.0 |
| 20260831080830 | 69 | 148 | 0.0 | 0.0 | 0.00 | 0.00 | 0.00 | 78 | 1011.1 |
| 20260831080328 | 69 | 148 | 0.0 | 0.0 | 0.00 | 0.00 | 0.00 | 78 | 1011.1 |
| 20260831075845 | 69 | 148 | 0.0 | 0.0 | 0.00 | 0.00 | 0.00 | 78 | 1011.2 |
| 20260831075323 | 69 | 148 | 0.0 | 0.0 | 0.00 | 0.00 | 0.00 | 78 | 1011.2 |
| 20260831074822 | 69 | 148 | 0.0 | 0.0 | 0.00 | 0.00 | 0.00 | 78 | 1011.2 |
| 20260831074321 | 69 | 148 | 0.0 | 0.0 | 0.00 | 0.00 | 0.00 | 78 | 1011.1 |
| 20260831073821 | 69 | 148 | 0.0 | 0.0 | 0.00 | 0.00 | 0.00 | 78 | 1011.2 |
| 20260831073320 | 69 | 148 | 0.0 | 0.0 | 0.00 | 0.00 | 0.00 | 77 | 1011.1 |
| 20260831072820 | 70 | 148 | 0.0 | 0.0 | 0.00 | 0.00 | 0.00 | 77 | 1011.1 |
| 20260831072320 | 70 | 148 | 0.0 | 0.0 | 0.00 | 0.00 | 0.00 | 77 | 1011.1 |
| 20260831071821 | 70 | 148 | 0.0 | 0.0 | 0.00 | 0.00 | 0.00 | 76 | 1011.0 |
| 20260831071323 | 70 | 148 | 0.0 | 0.0 | 0.00 | 0.00 | 0.00 | 76 | 1011.0 |
| 20260831070845 | 70 | 148 | 0.0 | 0.0 | 0.00 | 0.00 | 0.00 | 76 | 1010.9 |
| 20260831070325 | 70 | 148 | 0.0 | 0.0 | 0.00 | 0.00 | 0.00 | 76 | 1010.9 |
| 20260831065847 | 70 | 148 | 0.0 | 0.0 | 0.00 | 0.00 | 0.00 | 75 | 1010.9 |
| 20260831065327 | 70 | 148 | 0.0 | 0.0 | 0.00 | 0.00 | 0.00 | 75 | 1010.8 |
| 20260831064827 | 71 | 148 | 0.0 | 0.0 | 0.00 | 0.00 | 0.00 | 74 | 1010.8 |
| 20260831064329 | 71 | 148 | 0.0 | 0.0 | 0.00 | 0.00 | 0.00 | 74 | 1010.8 |
| 20260831063829 | 71 | 148 | 0.0 | 0.0 | 0.00 | 0.00 | 0.00 | 74 | 1010.8 |
| 20260831063327 | 71 | 148 | 0.0 | 0.0 | 0.00 | 0.00 | 0.00 | 73 | 1010.8 |
| 20260831062826 | 71 | 148 | 0.0 | 0.0 | 0.00 | 0.00 | 0.00 | 73 | 1010.9 |
| 20260831062347 | 72 | 148 | 0.0 | 0.0 | 0.00 | 0.00 | 0.00 | 73 | 1010.9 |
| 20260831061829 | 72 | 148 | 0.0 | 0.0 | 0.00 | 0.00 | 0.00 | 72 | 1010.9 |
| 20260831061331 | 72 | 148 | 0.0 | 0.0 | 0.00 | 0.00 | 0.00 | 72 | 1010.9 |
| 20260831060831 | 72 | 152 | 0.0 | 0.0 | 0.00 | 0.00 | 0.00 | 72 | 1010.9 |
| 20260831060353 | 72 | 150 | 0.0 | 0.0 | 0.00 | 0.00 | 0.00 | 71 | 1010.9 |
| 20260831055836 | 72 | 151 | 0.0 | 0.0 | 0.00 | 0.00 | 0.00 | 71 | 1010.9 |
| 20260831055333 | 72 | 151 | 0.0 | 0.0 | 0.00 | 0.00 | 0.00 | 70 | 1010.9 |
| 20260831054837 | 72 | 151 | 0.0 | 0.0 | 0.00 | 0.00 | 0.00 | 70 | 1010.9 |
| 20260831054336 | 73 | 151 | 0.0 | 0.0 | 0.00 | 0.00 | 0.00 | 70 | 1010.8 |
| 20260831053839 | 73 | 151 | 0.0 | 0.0 | 0.00 | 0.00 | 0.00 | 70 | 1010.9 |
| 20260831053333 | 73 | 151 | 0.0 | 0.0 | 0.00 | 0.00 | 0.00 | 69 | 1010.9 |
| 20260831052834 | 73 | 151 | 0.0 | 0.0 | 0.00 | 0.00 | 0.00 | 69 | 1010.9 |
| 20260831052333 | 73 | 151 | 0.0 | 0.0 | 0.00 | 0.00 | 0.00 | 69 | 1010.9 |
| 20260831051859 | 74 | 151 | 0.0 | 0.0 | 0.00 | 0.00 | 0.00 | 69 | 1010.9 |
| 20260831051329 | 74 | 148 | 0.0 | 0.0 | 0.00 | 0.00 | 0.00 | 69 | 1010.9 |
| 20260831050833 | 74 | 143 | 0.0 | 0.0 | 0.00 | 0.00 | 0.00 | 69 | 1010.9 |
| 20260831050335 | 74 | 143 | 0.0 | 0.0 | 0.00 | 0.00 | 0.00 | 68 | 1010.9 |
| 20260831045838 | 74 | 160 | 0.0 | 0.0 | 0.00 | 0.00 | 0.00 | 68 | 1010.8 |
| 20260831045338 | 74 | 86 | 0.0 | 0.0 | 0.00 | 0.00 | 0.00 | 68 | 1010.8 |
| 20260831044820 | 74 | 86 | 0.0 | 0.0 | 0.00 | 0.00 | 0.00 | 68 | 1010.6 |
| 20260831044320 | 75 | 86 | 0.0 | 0.0 | 0.00 | 0.00 | 0.00 | 69 | 1010.6 |
| 20260831043820 | 75 | 86 | 0.0 | 0.0 | 0.00 | 0.00 | 0.00 | 70 | 1010.6 |
| 20260831043320 | 75 | 86 | 0.0 | 0.0 | 0.00 | 0.00 | 0.00 | 70 | 1010.6 |
| 20260831042821 | 75 | 86 | 0.0 | 0.0 | 0.00 | 0.00 | 0.00 | 69 | 1010.5 |
| 20260831042323 | 75 | 86 | 0.0 | 0.0 | 0.00 | 0.00 | 0.00 | 69 | 1010.5 |
| 20260831041826 | 76 | 85 | 0.0 | 0.0 | 0.00 | 0.00 | 0.00 | 68 | 1010.4 |
| 20260831041326 | 76 | 85 | 0.0 | 0.0 | 0.00 | 0.00 | 0.00 | 68 | 1010.4 |
| 20260831040827 | 76 | 273 | 0.0 | 0.0 | 0.00 | 0.00 | 0.00 | 67 | 1010.3 |
| 20260831040333 | 76 | 273 | 0.0 | 0.0 | 0.00 | 0.00 | 0.00 | 67 | 1010.3 |
| 20260831035856 | 76 | 273 | 0.0 | 0.0 | 0.00 | 0.00 | 0.00 | 65 | 1010.2 |
| 20260831035335 | 77 | 273 | 0.0 | 0.0 | 0.00 | 0.00 | 0.00 | 65 | 1010.1 |
| 20260831034837 | 77 | 273 | 0.0 | 0.0 | 0.00 | 0.00 | 0.00 | 65 | 1010.1 |
| 20260831034337 | 77 | 273 | 0.0 | 0.0 | 0.00 | 0.00 | 0.00 | 65 | 1010.0 |
| 20260831033823 | 77 | 273 | 0.0 | 0.0 | 0.00 | 0.00 | 0.00 | 65 | 1009.9 |
| 20260831033343 | 78 | 273 | 0.0 | 0.0 | 0.00 | 0.00 | 0.00 | 65 | 1009.8 |
| 20260831032820 | 78 | 273 | 0.0 | 0.0 | 0.00 | 0.00 | 0.00 | 65 | 1009.8 |
| 20260831032323 | 78 | 273 | 0.0 | 0.0 | 0.00 | 0.00 | 0.00 | 64 | 1009.7 |
| 20260831031826 | 78 | 210 | 0.0 | 0.0 | 0.00 | 0.00 | 0.00 | 64 | 1009.6 |
| 20260831031328 | 78 | 166 | 0.0 | 0.0 | 0.00 | 0.00 | 0.00 | 64 | 1009.5 |
| 20260831030830 | 78 | 240 | 0.0 | 0.0 | 0.00 | 0.00 | 0.00 | 63 | 1009.5 |
| 20260831030328 | 79 | 264 | 0.0 | 0.0 | 0.00 | 0.00 | 0.00 | 63 | 1009.5 |
| 20260831025830 | 79 | 252 | 0.0 | 0.0 | 0.00 | 0.00 | 0.00 | 63 | 1009.5 |
| 20260831025337 | 79 | 248 | 0.0 | 1.0 | 0.00 | 0.00 | 0.00 | 63 | 1009.4 |
| 20260831024820 | 79 | 219 | 0.0 | 1.0 | 0.00 | 0.00 | 0.00 | 63 | 1009.4 |
| 20260831023825 | 79 | 261 | 0.0 | 1.0 | 0.00 | 0.00 | 0.00 | 63 | 1009.5 |
| 20260831023345 | 80 | 248 | 0.0 | 1.0 | 0.00 | 0.00 | 0.00 | 62 | 1009.4 |
| 20260831022825 | 80 | 262 | 0.0 | 1.0 | 0.00 | 0.00 | 0.00 | 62 | 1009.4 |
| 20260831022328 | 80 | 252 | 0.0 | 3.0 | 0.00 | 0.00 | 0.00 | 61 | 1009.3 |
| 20260831021828 | 81 | 259 | 1.0 | 3.0 | 0.00 | 0.00 | 0.00 | 61 | 1009.4 |
| 20260831021330 | 81 | 280 | 0.0 | 3.0 | 0.00 | 0.00 | 0.00 | 61 | 1009.4 |
| 20260831020852 | 81 | 252 | 0.0 | 3.0 | 0.00 | 0.00 | 0.00 | 61 | 1009.2 |
| 20260831020331 | 82 | 264 | 0.0 | 4.0 | 0.00 | 0.00 | 0.00 | 61 | 1009.3 |
| 20260831015835 | 82 | 254 | 2.0 | 4.0 | 0.00 | 0.00 | 0.00 | 60 | 1009.2 |
| 20260831015320 | 83 | 271 | 1.0 | 4.0 | 0.00 | 0.00 | 0.00 | 59 | 1009.1 |
| 20260831014825 | 83 | 242 | 2.0 | 3.0 | 0.00 | 0.00 | 0.00 | 59 | 1009.1 |
| 20260831014326 | 84 | 268 | 1.0 | 4.0 | 0.00 | 0.00 | 0.00 | 58 | 1009.0 |
| 20260831013837 | 84 | 186 | 1.0 | 4.0 | 0.00 | 0.00 | 0.00 | 57 | 1009.1 |
| 20260831013338 | 85 | 273 | 1.0 | 4.0 | 0.00 | 0.00 | 0.00 | 56 | 1009.1 |
| 20260831012822 | 86 | 266 | 1.0 | 4.0 | 0.00 | 0.00 | 0.00 | 55 | 1009.0 |
| 20260831012327 | 86 | 248 | 0.0 | 3.0 | 0.00 | 0.00 | 0.00 | 54 | 1009.0 |
| 20260831011828 | 87 | 199 | 0.0 | 5.0 | 0.00 | 0.00 | 0.00 | 54 | 1009.1 |
| 20260831010848 | 87 | 241 | 1.0 | 5.0 | 0.00 | 0.00 | 0.00 | 54 | 1009.0 |
| 20260831010352 | 87 | 212 | 1.0 | 5.0 | 0.00 | 0.00 | 0.00 | 53 | 1009.0 |
| 20260831005834 | 88 | 276 | 1.0 | 6.0 | 0.00 | 0.00 | 0.00 | 53 | 1009.1 |
| 20260831005339 | 88 | 148 | 1.0 | 6.0 | 0.00 | 0.00 | 0.00 | 52 | 1009.1 |
| 20260831004823 | 88 | 231 | 1.0 | 5.0 | 0.00 | 0.00 | 0.00 | 52 | 1009.0 |
| 20260831004346 | 88 | 192 | 2.0 | 5.0 | 0.00 | 0.00 | 0.00 | 52 | 1009.1 |
| 20260831003825 | 88 | 219 | 1.0 | 5.0 | 0.00 | 0.00 | 0.00 | 52 | 1009.1 |
| 20260831003330 | 88 | 243 | 2.0 | 5.0 | 0.00 | 0.00 | 0.00 | 52 | 1009.1 |
| 20260831002837 | 89 | 165 | 2.0 | 3.0 | 0.00 | 0.00 | 0.00 | 52 | 1009.1 |
| 20260831001827 | 89 | 159 | 1.0 | 6.0 | 0.00 | 0.00 | 0.00 | 52 | 1008.9 |
| 20260831001334 | 89 | 212 | 2.0 | 6.0 | 0.00 | 0.00 | 0.00 | 53 | 1009.0 |
| 20260831000819 | 89 | 241 | 2.0 | 5.0 | 0.00 | 0.00 | 0.00 | 52 | 1009.0 |
| 20260831000325 | 89 | 179 | 2.0 | 5.0 | 0.00 | 0.00 | 0.00 | 52 | 1008.9 |
| 20260830235833 | 89 | 229 | 2.0 | 6.0 | 0.00 | 0.00 | 0.00 | 52 | 1008.9 |
| 20260830235333 | 89 | 157 | 1.0 | 6.0 | 0.00 | 0.00 | 0.00 | 53 | 1008.9 |
| 20260830234839 | 89 | 205 | 1.0 | 6.0 | 0.00 | 0.00 | 0.00 | 53 | 1008.9 |
| 20260830234320 | 89 | 259 | 1.0 | 6.0 | 0.00 | 0.00 | 0.00 | 53 | 1008.9 |
| 20260830233828 | 90 | 229 | 2.0 | 4.0 | 0.00 | 0.00 | 0.00 | 53 | 1009.0 |
| 20260830233328 | 89 | 173 | 2.0 | 4.0 | 0.00 | 0.00 | 0.00 | 53 | 1008.9 |
| 20260830232835 | 90 | 206 | 2.0 | 5.0 | 0.00 | 0.00 | 0.00 | 53 | 1009.0 |
| 20260830232336 | 90 | 197 | 2.0 | 7.0 | 0.00 | 0.00 | 0.00 | 53 | 1009.0 |
| 20260830231823 | 90 | 264 | 2.0 | 8.0 | 0.00 | 0.00 | 0.00 | 53 | 1009.0 |
| 20260830231325 | 90 | 239 | 5.0 | 8.0 | 0.00 | 0.00 | 0.00 | 52 | 1009.0 |
| 20260830230831 | 90 | 269 | 2.0 | 7.0 | 0.00 | 0.00 | 0.00 | 52 | 1009.1 |
| 20260830230354 | 90 | 250 | 2.0 | 9.0 | 0.00 | 0.00 | 0.00 | 52 | 1009.1 |
| 20260830225823 | 90 | 131 | 3.0 | 9.0 | 0.00 | 0.00 | 0.00 | 52 | 1009.1 |
| 20260830225330 | 91 | 221 | 2.0 | 5.0 | 0.00 | 0.00 | 0.00 | 52 | 1009.1 |
| 20260830224830 | 91 | 328 | 3.0 | 5.0 | 0.00 | 0.00 | 0.00 | 52 | 1009.2 |
| 20260830224336 | 91 | 263 | 1.0 | 7.0 | 0.00 | 0.00 | 0.00 | 51 | 1009.2 |
| 20260830223837 | 91 | 238 | 2.0 | 8.0 | 0.00 | 0.00 | 0.00 | 51 | 1009.4 |
| 20260830223358 | 91 | 203 | 3.0 | 8.0 | 0.00 | 0.00 | 0.00 | 51 | 1009.4 |
| 20260830222823 | 91 | 229 | 2.0 | 6.0 | 0.00 | 0.00 | 0.00 | 52 | 1009.4 |
| 20260830222326 | 91 | 255 | 2.0 | 5.0 | 0.00 | 0.00 | 0.00 | 52 | 1009.5 |
| 20260830221853 | 91 | 222 | 2.0 | 4.0 | 0.00 | 0.00 | 0.00 | 51 | 1009.6 |
| 20260830221333 | 91 | 272 | 1.0 | 7.0 | 0.00 | 0.00 | 0.00 | 51 | 1009.7 |
| 20260830220900 | 91 | 235 | 2.0 | 7.0 | 0.00 | 0.00 | 0.00 | 51 | 1009.8 |
| 20260830220359 | 92 | 262 | 3.0 | 6.0 | 0.00 | 0.00 | 0.00 | 50 | 1009.8 |
| 20260830215839 | 92 | 262 | 0.0 | 6.0 | 0.00 | 0.00 | 0.00 | 48 | 1009.8 |
| 20260830214820 | 92 | 155 | 3.0 | 8.0 | 0.00 | 0.00 | 0.00 | 47 | 1010.0 |
| 20260830214341 | 92 | 179 | 1.0 | 7.0 | 0.00 | 0.00 | 0.00 | 47 | 1010.1 |
| 20260830213837 | 92 | 123 | 3.0 | 7.0 | 0.00 | 0.00 | 0.00 | 47 | 1010.2 |
| 20260830213320 | 92 | 226 | 2.0 | 6.0 | 0.00 | 0.00 | 0.00 | 48 | 1010.2 |
| 20260830212826 | 92 | 269 | 2.0 | 4.0 | 0.00 | 0.00 | 0.00 | 46 | 1010.2 |
| 20260830212327 | 93 | 274 | 1.0 | 6.0 | 0.00 | 0.00 | 0.00 | 44 | 1010.3 |
| 20260830211829 | 93 | 141 | 2.0 | 7.0 | 0.00 | 0.00 | 0.00 | 44 | 1010.4 |
| 20260830211330 | 93 | 225 | 2.0 | 7.0 | 0.00 | 0.00 | 0.00 | 43 | 1010.4 |
| 20260830210831 | 93 | 161 | 1.0 | 7.0 | 0.00 | 0.00 | 0.00 | 44 | 1010.4 |
| 20260830210332 | 93 | 232 | 3.0 | 7.0 | 0.00 | 0.00 | 0.00 | 44 | 1010.4 |
| 20260830205833 | 92 | 174 | 3.0 | 6.0 | 0.00 | 0.00 | 0.00 | 44 | 1010.4 |
| 20260830205330 | 93 | 200 | 2.0 | 9.0 | 0.00 | 0.00 | 0.00 | 45 | 1010.5 |
| 20260830204835 | 93 | 284 | 2.0 | 6.0 | 0.00 | 0.00 | 0.00 | 44 | 1010.5 |
| 20260830204356 | 93 | 227 | 2.0 | 6.0 | 0.00 | 0.00 | 0.00 | 44 | 1010.5 |
| 20260830203820 | 93 | 277 | 3.0 | 6.0 | 0.00 | 0.00 | 0.00 | 45 | 1010.6 |
| 20260830203325 | 93 | 211 | 3.0 | 6.0 | 0.00 | 0.00 | 0.00 | 46 | 1010.6 |
| 20260830202849 | 93 | 215 | 1.0 | 6.0 | 0.00 | 0.00 | 0.00 | 46 | 1010.6 |
| 20260830202326 | 92 | 176 | 1.0 | 6.0 | 0.00 | 0.00 | 0.00 | 47 | 1010.6 |
| 20260830201826 | 92 | 123 | 3.0 | 6.0 | 0.00 | 0.00 | 0.00 | 47 | 1010.6 |
| 20260830201328 | 92 | 340 | 2.0 | 5.0 | 0.00 | 0.00 | 0.00 | 47 | 1010.7 |
| 20260830200836 | 92 | 195 | 3.0 | 5.0 | 0.00 | 0.00 | 0.00 | 48 | 1010.7 |
| 20260830200358 | 91 | 203 | 3.0 | 6.0 | 0.00 | 0.00 | 0.00 | 48 | 1010.7 |
| 20260830195823 | 91 | 139 | 3.0 | 6.0 | 0.00 | 0.00 | 0.00 | 48 | 1010.7 |